GLD1154 SBCT-SBFI

Flight info

Callsign GLD1154
Flight time 0h 55m
Altitude 30000
Route EVMU1C EVSUP UZ161 DIDOM DORG1A
Aircraft B738/M-SDFGIRY/S

Departure

Time 2026-04-25 15:21
Airport Curitiba-Afonso Pena International Airport (SBCT)

Arrival

Time 2026-04-25 16:17
Airport Cataratas International Airport (SBFI)
Time Latitude Longitude Altitude Speed Heading
2026-04-25 15:01 -25.53525 -49.17261 2995 ft 0 kts 225°
2026-04-25 15:16 -25.53497 -49.17237 2995 ft 4 kts 200°
2026-04-25 15:17 -25.53458 -49.17240 2995 ft 0 kts 135°
2026-04-25 15:19 -25.53472 -49.17223 2995 ft 10 kts 133°
2026-04-25 15:19 -25.53563 -49.17119 2995 ft 15 kts 134°
2026-04-25 15:19 -25.53604 -49.17022 2995 ft 14 kts 101°
2026-04-25 15:20 -25.53610 -49.16925 2994 ft 11 kts 89°
2026-04-25 15:20 -25.53609 -49.16841 2994 ft 11 kts 90°
2026-04-25 15:20 -25.53603 -49.16767 2993 ft 7 kts 52°
2026-04-25 15:20 -25.53564 -49.16779 2993 ft 8 kts 313°
2026-04-25 15:21 -25.53346 -49.17026 2994 ft 85 kts 314°
2026-04-25 15:21 -25.52764 -49.17684 2995 ft 152 kts 312°
2026-04-25 15:21 -25.51942 -49.18601 3518 ft 177 kts 312°
2026-04-25 15:21 -25.51159 -49.19684 4385 ft 179 kts 298°
2026-04-25 15:22 -25.50674 -49.20879 5503 ft 162 kts 278°
2026-04-25 15:22 -25.50936 -49.22115 5991 ft 188 kts 236°
2026-04-25 15:22 -25.51992 -49.23196 6073 ft 221 kts 226°
2026-04-25 15:22 -25.53142 -49.24459 6235 ft 244 kts 231°
2026-04-25 15:23 -25.54295 -49.25951 6504 ft 266 kts 234°
2026-04-25 15:23 -25.55419 -49.27604 7129 ft 271 kts 237°
2026-04-25 15:23 -25.56477 -49.29330 7709 ft 273 kts 240°
2026-04-25 15:23 -25.57477 -49.31107 7966 ft 273 kts 241°
2026-04-25 15:24 -25.58453 -49.32919 7981 ft 273 kts 242°
2026-04-25 15:24 -25.59410 -49.34725 7979 ft 270 kts 242°
2026-04-25 15:24 -25.60354 -49.36521 7970 ft 269 kts 244°
2026-04-25 15:24 -25.60810 -49.37782 7956 ft 269 kts 261°
2026-04-25 15:25 -25.60695 -49.40537 8388 ft 271 kts 282°
2026-04-25 15:25 -25.60196 -49.42557 9228 ft 273 kts 285°
2026-04-25 15:25 -25.59639 -49.44571 10128 ft 274 kts 286°
2026-04-25 15:25 -25.59063 -49.46642 10572 ft 292 kts 285°
2026-04-25 15:26 -25.58448 -49.48888 10732 ft 317 kts 285°
2026-04-25 15:26 -25.57790 -49.51318 10907 ft 340 kts 285°
2026-04-25 15:26 -25.57111 -49.53850 11239 ft 353 kts 285°
2026-04-25 15:26 -25.56408 -49.56482 11792 ft 358 kts 285°
2026-04-25 15:27 -25.55701 -49.59139 12471 ft 360 kts 285°
2026-04-25 15:27 -25.54991 -49.61811 13156 ft 362 kts 285°
2026-04-25 15:27 -25.53553 -49.67209 14363 ft 368 kts 285°
2026-04-25 15:28 -25.52822 -49.69945 14872 ft 372 kts 285°
2026-04-25 15:28 -25.52084 -49.72706 15396 ft 375 kts 285°
2026-04-25 15:28 -25.51341 -49.75484 15976 ft 377 kts 285°
2026-04-25 15:28 -25.50595 -49.78271 16529 ft 379 kts 285°
2026-04-25 15:29 -25.49841 -49.81084 17034 ft 382 kts 285°
2026-04-25 15:29 -25.49084 -49.83909 17522 ft 386 kts 285°
2026-04-25 15:29 -25.48315 -49.86776 18005 ft 388 kts 285°
2026-04-25 15:29 -25.47543 -49.89653 18464 ft 391 kts 285°
2026-04-25 15:30 -25.46774 -49.92514 18897 ft 392 kts 285°
2026-04-25 15:30 -25.45996 -49.95407 19361 ft 392 kts 285°
2026-04-25 15:30 -25.45215 -49.98306 19817 ft 393 kts 285°
2026-04-25 15:30 -25.44491 -50.00995 20242 ft 393 kts 284°
2026-04-25 15:31 -25.43706 -50.03907 20636 ft 395 kts 284°
2026-04-25 15:31 -25.42919 -50.06823 21028 ft 396 kts 284°
2026-04-25 15:31 -25.42129 -50.09749 21349 ft 399 kts 284°
2026-04-25 15:31 -25.41331 -50.12701 21656 ft 402 kts 284°
2026-04-25 15:32 -25.40528 -50.15671 22029 ft 402 kts 284°
2026-04-25 15:32 -25.39725 -50.18637 22416 ft 403 kts 284°
2026-04-25 15:32 -25.38919 -50.21611 22779 ft 404 kts 284°
2026-04-25 15:33 -25.37313 -50.27526 23450 ft 405 kts 284°
2026-04-25 15:33 -25.36501 -50.30515 23694 ft 407 kts 284°
2026-04-25 15:33 -25.35684 -50.33522 23942 ft 409 kts 284°
2026-04-25 15:33 -25.34863 -50.36538 24183 ft 410 kts 284°
2026-04-25 15:34 -25.34037 -50.39569 24406 ft 411 kts 284°
2026-04-25 15:34 -25.33207 -50.42613 24648 ft 413 kts 284°
2026-04-25 15:34 -25.32378 -50.45653 24908 ft 413 kts 284°
2026-04-25 15:34 -25.31829 -50.47663 25045 ft 414 kts 284°
2026-04-25 15:35 -25.29870 -50.54828 25471 ft 419 kts 285°
2026-04-25 15:35 -25.29129 -50.57904 25673 ft 419 kts 278°
2026-04-25 15:35 -25.29016 -50.61116 25881 ft 419 kts 268°
2026-04-25 15:36 -25.29184 -50.67562 26375 ft 420 kts 269°
2026-04-25 15:36 -25.29233 -50.70795 26678 ft 420 kts 269°
2026-04-25 15:36 -25.29272 -50.74011 27018 ft 418 kts 269°
2026-04-25 15:37 -25.29307 -50.77212 27369 ft 416 kts 269°
2026-04-25 15:37 -25.29340 -50.80421 27739 ft 415 kts 269°
2026-04-25 15:37 -25.29373 -50.83606 28072 ft 414 kts 269°
2026-04-25 15:37 -25.29406 -50.86786 28407 ft 414 kts 269°
2026-04-25 15:38 -25.29438 -50.89977 28780 ft 413 kts 269°
2026-04-25 15:38 -25.29471 -50.93146 29184 ft 411 kts 269°
2026-04-25 15:38 -25.29502 -50.96262 29534 ft 411 kts 269°
2026-04-25 15:38 -25.29533 -50.99427 29888 ft 411 kts 270°
2026-04-25 15:39 -25.29591 -51.05614 30007 ft 414 kts 269°
2026-04-25 15:39 -25.29646 -51.11945 30004 ft 409 kts 270°
2026-04-25 15:40 -25.29681 -51.16148 30018 ft 409 kts 270°
2026-04-25 15:40 -25.29746 -51.24526 30014 ft 410 kts 270°
2026-04-25 15:41 -25.29792 -51.30826 30011 ft 410 kts 270°
2026-04-25 15:41 -25.29835 -51.37137 30014 ft 411 kts 270°
2026-04-25 15:42 -25.29876 -51.43455 30019 ft 411 kts 270°
2026-04-25 15:42 -25.29915 -51.49739 30021 ft 411 kts 270°
2026-04-25 15:43 -25.29950 -51.56055 30024 ft 411 kts 270°
2026-04-25 15:43 -25.29981 -51.62371 30021 ft 411 kts 270°
2026-04-25 15:44 -25.30009 -51.68679 30022 ft 410 kts 270°
2026-04-25 15:44 -25.30035 -51.74987 30026 ft 410 kts 270°
2026-04-25 15:45 -25.30059 -51.81295 30024 ft 410 kts 270°
2026-04-25 15:45 -25.30073 -51.85470 30021 ft 409 kts 271°
2026-04-25 15:46 -25.30098 -51.93856 30019 ft 409 kts 271°
2026-04-25 15:46 -25.30113 -52.00076 29994 ft 409 kts 270°
2026-04-25 15:47 -25.30126 -52.06269 30017 ft 409 kts 271°
2026-04-25 15:47 -25.30136 -52.12562 30013 ft 409 kts 271°
2026-04-25 15:48 -25.30144 -52.18858 30009 ft 410 kts 271°
2026-04-25 15:48 -25.30149 -52.25164 30014 ft 410 kts 271°
2026-04-25 15:49 -25.30149 -52.31428 30016 ft 411 kts 271°
2026-04-25 15:49 -25.30144 -52.37780 30009 ft 410 kts 271°
2026-04-25 15:50 -25.30136 -52.44036 30007 ft 410 kts 271°
2026-04-25 15:50 -25.30126 -52.50336 30012 ft 409 kts 271°
2026-04-25 15:51 -25.30118 -52.54546 29998 ft 410 kts 271°
2026-04-25 15:51 -25.30098 -52.62916 30000 ft 409 kts 271°
2026-04-25 15:52 -25.30080 -52.69202 29999 ft 409 kts 271°
2026-04-25 15:52 -25.30060 -52.75493 29997 ft 409 kts 271°
2026-04-25 15:53 -25.30037 -52.81767 29987 ft 408 kts 271°
2026-04-25 15:53 -25.30012 -52.88036 29994 ft 405 kts 271°
2026-04-25 15:54 -25.29999 -52.91106 29854 ft 395 kts 271°
2026-04-25 15:54 -25.29984 -52.94117 29436 ft 388 kts 271°
2026-04-25 15:54 -25.29967 -52.97080 28941 ft 384 kts 271°
2026-04-25 15:54 -25.29951 -53.00002 28502 ft 379 kts 271°
2026-04-25 15:55 -25.29934 -53.02737 28058 ft 375 kts 271°
2026-04-25 15:55 -25.29917 -53.05609 27608 ft 370 kts 271°
2026-04-25 15:55 -25.29899 -53.08441 27168 ft 366 kts 271°
2026-04-25 15:55 -25.29882 -53.11244 26720 ft 363 kts 271°
2026-04-25 15:56 -25.29864 -53.13977 26294 ft 359 kts 271°
2026-04-25 15:56 -25.29846 -53.16737 25862 ft 356 kts 271°
2026-04-25 15:56 -25.29855 -53.19466 25445 ft 354 kts 269°
2026-04-25 15:56 -25.29988 -53.22164 25059 ft 350 kts 266°
2026-04-25 15:57 -25.30175 -53.24835 24654 ft 347 kts 266°
2026-04-25 15:57 -25.30374 -53.27481 24244 ft 345 kts 266°
2026-04-25 15:57 -25.30570 -53.30117 23816 ft 343 kts 266°
2026-04-25 15:57 -25.30760 -53.32746 23353 ft 342 kts 265°
2026-04-25 15:58 -25.30943 -53.35361 22884 ft 339 kts 266°
2026-04-25 15:58 -25.31120 -53.37944 22426 ft 337 kts 266°
2026-04-25 15:58 -25.31291 -53.40521 21967 ft 335 kts 266°
2026-04-25 15:58 -25.31458 -53.43074 21550 ft 332 kts 266°
2026-04-25 15:59 -25.31625 -53.45619 21129 ft 330 kts 266°
2026-04-25 15:59 -25.31788 -53.48118 20723 ft 328 kts 266°
2026-04-25 15:59 -25.31952 -53.50630 20321 ft 327 kts 266°
2026-04-25 15:59 -25.32115 -53.53124 19924 ft 325 kts 266°
2026-04-25 16:00 -25.32276 -53.55616 19526 ft 324 kts 266°
2026-04-25 16:00 -25.32331 -53.56455 19395 ft 324 kts 266°
2026-04-25 16:00 -25.32599 -53.60598 18720 ft 327 kts 266°
2026-04-25 16:00 -25.32761 -53.63116 18309 ft 332 kts 266°
2026-04-25 16:01 -25.32927 -53.65688 17838 ft 339 kts 266°
2026-04-25 16:01 -25.33095 -53.68300 17408 ft 340 kts 266°
2026-04-25 16:01 -25.33262 -53.70903 16980 ft 338 kts 266°
2026-04-25 16:01 -25.33371 -53.72612 16704 ft 336 kts 266°
2026-04-25 16:02 -25.33534 -53.75175 16293 ft 333 kts 266°
2026-04-25 16:02 -25.33696 -53.77721 15892 ft 330 kts 266°
2026-04-25 16:02 -25.33857 -53.80251 15491 ft 328 kts 267°
2026-04-25 16:02 -25.34015 -53.82752 15096 ft 326 kts 266°
2026-04-25 16:03 -25.34172 -53.85245 14698 ft 324 kts 267°
2026-04-25 16:03 -25.34327 -53.87719 14308 ft 322 kts 267°
2026-04-25 16:03 -25.34482 -53.90185 13914 ft 321 kts 267°
2026-04-25 16:03 -25.34636 -53.92644 13467 ft 320 kts 267°
2026-04-25 16:04 -25.34789 -53.95097 12923 ft 321 kts 267°
2026-04-25 16:04 -25.34944 -53.97598 12303 ft 326 kts 267°
2026-04-25 16:04 -25.35095 -54.00043 11847 ft 325 kts 267°
2026-04-25 16:04 -25.35243 -54.02425 11458 ft 323 kts 267°
2026-04-25 16:05 -25.35395 -54.04895 11064 ft 320 kts 267°
2026-04-25 16:05 -25.35546 -54.07343 10687 ft 318 kts 267°
2026-04-25 16:05 -25.35835 -54.12042 10397 ft 299 kts 267°
2026-04-25 16:06 -25.35973 -54.14299 10261 ft 290 kts 267°
2026-04-25 16:06 -25.36107 -54.16497 10137 ft 281 kts 267°
2026-04-25 16:06 -25.36236 -54.18622 10011 ft 273 kts 267°
2026-04-25 16:06 -25.36363 -54.20700 9751 ft 270 kts 267°
2026-04-25 16:07 -25.36487 -54.22764 9470 ft 268 kts 267°
2026-04-25 16:07 -25.36569 -54.24125 9276 ft 267 kts 267°
2026-04-25 16:07 -25.36731 -54.26833 8906 ft 265 kts 268°
2026-04-25 16:07 -25.36853 -54.28859 8619 ft 263 kts 268°
2026-04-25 16:08 -25.36973 -54.30872 8351 ft 262 kts 268°
2026-04-25 16:08 -25.37095 -54.32913 8081 ft 262 kts 268°
2026-04-25 16:08 -25.37215 -54.34930 7810 ft 264 kts 268°
2026-04-25 16:08 -25.37334 -54.36940 7500 ft 265 kts 268°
2026-04-25 16:09 -25.37455 -54.38974 7222 ft 264 kts 268°
2026-04-25 16:09 -25.37575 -54.40993 6920 ft 260 kts 268°
2026-04-25 16:09 -25.37692 -54.42960 6668 ft 254 kts 268°
2026-04-25 16:09 -25.37806 -54.44909 6401 ft 254 kts 268°
2026-04-25 16:10 -25.37921 -54.46855 6122 ft 254 kts 268°
2026-04-25 16:10 -25.38035 -54.48802 5841 ft 253 kts 267°
2026-04-25 16:10 -25.38149 -54.50741 5572 ft 252 kts 268°
2026-04-25 16:10 -25.38262 -54.52678 5327 ft 254 kts 268°
2026-04-25 16:11 -25.38376 -54.54642 5021 ft 257 kts 267°
2026-04-25 16:11 -25.38491 -54.56610 4730 ft 257 kts 268°
2026-04-25 16:11 -25.38889 -54.58528 4420 ft 259 kts 244°
2026-04-25 16:11 -25.40054 -54.60013 4308 ft 252 kts 219°
2026-04-25 16:12 -25.41570 -54.60931 4296 ft 247 kts 205°
2026-04-25 16:12 -25.43163 -54.61591 4216 ft 239 kts 203°
2026-04-25 16:12 -25.44686 -54.62194 4109 ft 226 kts 203°
2026-04-25 16:12 -25.45655 -54.62583 3962 ft 222 kts 204°
2026-04-25 16:13 -25.47617 -54.63020 3623 ft 218 kts 173°
2026-04-25 16:13 -25.48958 -54.62316 3422 ft 212 kts 145°
2026-04-25 16:13 -25.49988 -54.61172 3199 ft 207 kts 133°
2026-04-25 16:13 -25.50897 -54.59960 2935 ft 203 kts 132°
2026-04-25 16:14 -25.51793 -54.58785 2673 ft 196 kts 132°
2026-04-25 16:14 -25.52657 -54.57671 2450 ft 185 kts 133°
2026-04-25 16:14 -25.53464 -54.56626 2181 ft 173 kts 133°
2026-04-25 16:14 -25.54202 -54.55677 2014 ft 151 kts 133°
2026-04-25 16:15 -25.54906 -54.54769 1777 ft 156 kts 132°
2026-04-25 16:15 -25.55602 -54.53869 1589 ft 152 kts 133°
2026-04-25 16:15 -25.56286 -54.52989 1413 ft 150 kts 131°
2026-04-25 16:15 -25.56967 -54.52109 1234 ft 150 kts 130°
2026-04-25 16:16 -25.57646 -54.51234 1042 ft 149 kts 129°
2026-04-25 16:16 -25.58313 -54.50362 901 ft 147 kts 128°
2026-04-25 16:16 -25.58987 -54.49492 788 ft 149 kts 130°
2026-04-25 16:16 -25.59588 -54.48720 767 ft 105 kts 131°
2026-04-25 16:17 -25.59910 -54.48320 766 ft 24 kts 156°
2026-04-25 16:17 -25.59932 -54.48292 766 ft 4 kts 45°
2026-04-25 16:17 -25.59912 -54.48303 766 ft 4 kts 306°
2026-04-25 16:17 -25.59875 -54.48358 766 ft 17 kts 308°
2026-04-25 16:18 -25.59809 -54.48482 765 ft 10 kts 250°
2026-04-25 16:18 -25.59823 -54.48502 765 ft 10 kts 223°
2026-04-25 16:18 -25.59841 -54.48542 765 ft 0 kts 271°
2026-04-25 16:19 -25.59841 -54.48543 765 ft 1 kts 271°
2026-04-25 16:20 -25.59759 -54.48668 766 ft 16 kts 311°
2026-04-25 16:20 -25.59736 -54.48747 766 ft 9 kts 226°
2026-04-25 16:20 -25.59763 -54.48772 766 ft 0 kts 220°